• In Portugal
  • List of Countries
  • For 7 days
  • Water Temperature
  • Satellite Maps
  • Weather Map
  • Weather Widgets
  • user-avatar
    Login

    Hourly Weather Batina

    Today, 19 February, Monday

    Time Temperature Precipitation Wind Pressure Humidity
    00:00 +4°C° 0 mm 2 mps 669 mmHg 85%
    01:00 +5°C° 0 mm 1 mps 669 mmHg 85%
    02:00 +4°C° 0 mm 1 mps 668 mmHg 85%
    03:00 +4°C° 0 mm 1 mps 668 mmHg 85%
    04:00 +4°C° 0 mm 1 mps 668 mmHg 85%
    05:00 +3°C° 0 mm 0 mps 668 mmHg 86%
    06:00 +3°C° 0 mm 0 mps 668 mmHg 86%
    07:00 +5°C° 0 mm 1 mps 668 mmHg 80%
    08:00 +6°C° 0 mm 1 mps 669 mmHg 75%
    09:00 +8°C° 0 mm 1 mps 669 mmHg 69%
    10:00 +8°C° 0.1 mm 1 mps 669 mmHg 67%
    11:00 +8°C° 0.1 mm 2 mps 669 mmHg 65%
    12:00 +8°C° 0.1 mm 2 mps 669 mmHg 63%
    13:00 +9°C° 0.1 mm 2 mps 668 mmHg 62%
    14:00 +9°C° 0.1 mm 2 mps 668 mmHg 61%
    15:00 +9°C° 0.1 mm 2 mps 668 mmHg 60%
    16:00 +9°C° 0.3 mm 2 mps 668 mmHg 64%
    17:00 +9°C° 0.3 mm 1 mps 667 mmHg 69%
    18:00 +8°C° 0.3 mm 1 mps 667 mmHg 73%
    19:00 +8°C° 0.4 mm 1 mps 667 mmHg 76%
    20:00 +8°C° 0.4 mm 1 mps 667 mmHg 79%
    21:00 +7°C° 0.4 mm 1 mps 667 mmHg 82%
    22:00 +7°C° 0.1 mm 1 mps 667 mmHg 83%
    23:00 +7°C° 0.1 mm 1 mps 667 mmHg 85%

    Tomorrow, 20 February, Tuesday

    Time Temperature Precipitation Wind Pressure Humidity
    00:00 +7°C° 0.1 mm 1 mps 667 mmHg 86%
    01:00 +6°C° 0 mm 1 mps 667 mmHg 87%
    02:00 +6°C° 0 mm 1 mps 666 mmHg 88%
    03:00 +6°C° 0 mm 1 mps 666 mmHg 90%
    04:00 +5°C° 0 mm 1 mps 666 mmHg 89%
    05:00 +5°C° 0 mm 1 mps 666 mmHg 89%
    06:00 +4°C° 0 mm 2 mps 666 mmHg 89%
    07:00 +4°C° 0 mm 2 mps 666 mmHg 83%
    08:00 +5°C° 0 mm 2 mps 666 mmHg 78%
    09:00 +6°C° 0 mm 2 mps 666 mmHg 72%
    10:00 +7°C° 0 mm 2 mps 666 mmHg 63%
    11:00 +8°C° 0 mm 2 mps 666 mmHg 55%
    12:00 +9°C° 0 mm 2 mps 666 mmHg 46%
    13:00 +9°C° 0.1 mm 3 mps 666 mmHg 45%
    14:00 +10°C° 0.1 mm 4 mps 666 mmHg 43%
    15:00 +9°C° 0.1 mm 5 mps 665 mmHg 41%
    16:00 +8°C° 0 mm 4 mps 665 mmHg 46%
    17:00 +7°C° 0 mm 4 mps 665 mmHg 52%
    18:00 +8°C° 0 mm 3 mps 664 mmHg 57%
    19:00 +7°C° 0 mm 3 mps 664 mmHg 60%
    20:00 +7°C° 0 mm 3 mps 664 mmHg 64%
    21:00 +6°C° 0 mm 2 mps 664 mmHg 67%
    22:00 +5°C° 0 mm 3 mps 664 mmHg 70%
    23:00 +5°C° 0 mm 3 mps 664 mmHg 72%

    Day after tomorrow, 21 February, Wednesday

    Time Temperature Precipitation Wind Pressure Humidity
    00:00 +4°C° 0 mm 3 mps 663 mmHg 75%
    01:00 +4°C° 0.1 mm 3 mps 663 mmHg 77%
    02:00 +5°C° 0.1 mm 2 mps 662 mmHg 79%
    03:00 +5°C° 0.1 mm 2 mps 662 mmHg 81%
    04:00 +5°C° 0.2 mm 2 mps 662 mmHg 82%
    05:00 +5°C° 0.2 mm 2 mps 662 mmHg 83%
    06:00 +5°C° 0.2 mm 2 mps 662 mmHg 84%
    07:00 +5°C° 0.1 mm 2 mps 662 mmHg 78%
    08:00 +6°C° 0.1 mm 2 mps 662 mmHg 73%
    09:00 +7°C° 0.1 mm 2 mps 663 mmHg 68%
    10:00 +7°C° 0.1 mm 2 mps 663 mmHg 64%
    11:00 +8°C° 0.1 mm 2 mps 662 mmHg 61%
    12:00 +10°C° 0.1 mm 1 mps 662 mmHg 58%
    13:00 +9°C° 0.2 mm 2 mps 662 mmHg 57%
    14:00 +9°C° 0.2 mm 2 mps 661 mmHg 55%
    15:00 +9°C° 0.2 mm 3 mps 661 mmHg 54%
    16:00 +9°C° 0.7 mm 3 mps 661 mmHg 59%
    17:00 +7°C° 0.7 mm 4 mps 660 mmHg 64%
    18:00 +6°C° 0.7 mm 4 mps 660 mmHg 70%
    19:00 +6°C° 0.5 mm 4 mps 660 mmHg 73%
    20:00 +5°C° 0.5 mm 3 mps 660 mmHg 77%
    21:00 +6°C° 0.5 mm 2 mps 660 mmHg 81%
    22:00 +5°C° 0.1 mm 2 mps 660 mmHg 82%
    23:00 +5°C° 0.1 mm 2 mps 660 mmHg 83%

    22 February, Thursday

    Time Temperature Precipitation Wind Pressure Humidity
    00:00 +6°C° 0.1 mm 1 mps 659 mmHg 84%
    01:00 +5°C° 0.3 mm 1 mps 659 mmHg 84%
    02:00 +4°C° 0.3 mm 2 mps 659 mmHg 85%
    03:00 +4°C° 0.3 mm 2 mps 658 mmHg 85%
    04:00 +3°C° 0.2 mm 2 mps 658 mmHg 86%
    05:00 +3°C° 0.2 mm 2 mps 658 mmHg 86%
    06:00 +3°C° 0.2 mm 2 mps 658 mmHg 86%
    07:00 +3°C° 0.1 mm 2 mps 658 mmHg 82%
    08:00 +3°C° 0.1 mm 3 mps 659 mmHg 78%
    09:00 +3°C° 0.1 mm 3 mps 659 mmHg 74%
    10:00 +4°C° 0.3 mm 3 mps 659 mmHg 70%
    11:00 +4°C° 0.3 mm 3 mps 659 mmHg 66%
    12:00 +5°C° 0.3 mm 3 mps 659 mmHg 62%
    13:00 +5°C° 0.3 mm 3 mps 659 mmHg 61%
    14:00 +5°C° 0.3 mm 3 mps 658 mmHg 60%
    15:00 +5°C° 0.3 mm 3 mps 658 mmHg 60%
    16:00 +4°C° 0.2 mm 3 mps 658 mmHg 63%
    17:00 +4°C° 0.2 mm 3 mps 658 mmHg 67%
    18:00 +3°C° 0.2 mm 3 mps 659 mmHg 70%
    19:00 +4°C° 0 mm 2 mps 659 mmHg 73%
    20:00 +3°C° 0 mm 2 mps 659 mmHg 76%
    21:00 +3°C° 0 mm 1 mps 659 mmHg 80%
    22:00 +3°C° 0 mm 1 mps 659 mmHg 81%
    23:00 +3°C° 0 mm 1 mps 659 mmHg 82%

    23 February, Friday

    Time Temperature Precipitation Wind Pressure Humidity
    00:00 +2°C° 0 mm 1 mps 659 mmHg 82%
    01:00 +2°C° 0 mm 1 mps 659 mmHg 81%
    02:00 +2°C° 0 mm 1 mps 658 mmHg 80%
    03:00 +2°C° 0 mm 1 mps 658 mmHg 79%
    04:00 +1°C° 0 mm 2 mps 658 mmHg 77%
    05:00 +1°C° 0 mm 2 mps 658 mmHg 74%
    06:00 +1°C° 0 mm 2 mps 658 mmHg 72%
    07:00 +1°C° 0 mm 3 mps 659 mmHg 67%
    08:00 +3°C° 0 mm 4 mps 660 mmHg 62%
    09:00 +5°C° 0 mm 5 mps 661 mmHg 57%
    10:00 +4°C° 0 mm 6 mps 661 mmHg 54%
    11:00 +5°C° 0 mm 7 mps 661 mmHg 51%
    12:00 +6°C° 0 mm 7 mps 661 mmHg 48%
    13:00 +6°C° 0 mm 7 mps 661 mmHg 47%
    14:00 +8°C° 0 mm 7 mps 661 mmHg 47%
    15:00 +8°C° 0 mm 7 mps 661 mmHg 47%
    16:00 +7°C° 0 mm 6 mps 661 mmHg 51%
    17:00 +6°C° 0 mm 4 mps 661 mmHg 56%
    18:00 +5°C° 0 mm 3 mps 661 mmHg 61%
    19:00 +5°C° 0 mm 3 mps 661 mmHg 62%
    20:00 +6°C° 0 mm 2 mps 661 mmHg 62%
    21:00 +6°C° 0 mm 2 mps 662 mmHg 63%
    22:00 +5°C° 0.1 mm 2 mps 662 mmHg 63%
    23:00 +5°C° 0.1 mm 2 mps 661 mmHg 64%

    24 February, Saturday

    Time Temperature Precipitation Wind Pressure Humidity
    00:00 +5°C° 0.1 mm 2 mps 661 mmHg 64%
    01:00 +5°C° 0.1 mm 2 mps 661 mmHg 63%
    02:00 +5°C° 0.1 mm 2 mps 661 mmHg 63%
    03:00 +4°C° 0.1 mm 3 mps 660 mmHg 63%
    04:00 +4°C° 0 mm 3 mps 660 mmHg 63%
    05:00 +4°C° 0 mm 3 mps 660 mmHg 64%
    06:00 +4°C° 0 mm 3 mps 660 mmHg 64%
    07:00 +5°C° 0 mm 3 mps 661 mmHg 59%
    08:00 +8°C° 0 mm 3 mps 661 mmHg 53%
    09:00 +10°C° 0 mm 3 mps 662 mmHg 48%
    10:00 +11°C° 0 mm 3 mps 662 mmHg 44%
    11:00 +13°C° 0 mm 2 mps 662 mmHg 40%
    12:00 +14°C° 0 mm 2 mps 662 mmHg 37%
    13:00 +15°C° 0 mm 2 mps 662 mmHg 35%
    14:00 +14°C° 0 mm 3 mps 661 mmHg 34%
    15:00 +14°C° 0 mm 3 mps 661 mmHg 33%
    16:00 +14°C° 0 mm 2 mps 661 mmHg 39%
    17:00 +13°C° 0 mm 2 mps 661 mmHg 44%
    18:00 +10°C° 0 mm 2 mps 661 mmHg 50%
    19:00 +10°C° 0 mm 2 mps 661 mmHg 52%
    20:00 +10°C° 0 mm 1 mps 661 mmHg 54%
    21:00 +10°C° 0 mm 1 mps 661 mmHg 56%
    22:00 +9°C° 0 mm 1 mps 661 mmHg 57%
    23:00 +9°C° 0 mm 1 mps 661 mmHg 57%
    Show more